Zurück zum Katalog

STARLINK-35562

AktivKommunikationVLEO
NORAD 66063·PAYLOAD·🇺🇸 United States

Gestartet Oct 19, 2025 von Cape Canaveral Space Force Station

Loading…

Nächste Überflüge (nächste 24 Stunden)

TLE

AktuellSource: CelesTrak SupGP

Epoche: Sep 14, 2026, 22:40 UTC

1 66063C 25235F   26257.94493056  .00030448  00000+0  89979-3 0  2570
2 66063  53.1589  85.6018 0001186  81.7620 354.5267 15.34368697    17

Verfolge STARLINK-35562 in Echtzeit mit AllMySat

Download on the App Store